When you browse on this site, cookies collect data to enhance your experience and personalize the content and advertising you see.
Visit our Privacy Policy to learn more. By continuing to use the site, you agree to this use of cookies and data.
  • In Hungary
  • List of Countries
  • For 7 days
  • Water Temperature
  • Satellite Maps
  • Weather Map
  • News
  • Weather Widgets
  • user-avatar
    Login

    Hourly Weather Ohringen

    Today, 24 February, Sunday

    Time Temperature Precipitation Wind Pressure Humidity
    00:00 0°C° 0 mm 3 mps 756 mmHg 46%
    01:00 0°C° 0 mm 3 mps 756 mmHg 45%
    02:00 0°C° 0 mm 3 mps 756 mmHg 44%
    03:00 0°C° 0 mm 3 mps 755 mmHg 43%
    04:00 -1°C° 0 mm 2 mps 755 mmHg 43%
    05:00 -1°C° 0 mm 2 mps 755 mmHg 42%
    06:00 -1°C° 0 mm 2 mps 755 mmHg 42%
    07:00 -1°C° 0 mm 2 mps 755 mmHg 42%
    08:00 +1°C° 0 mm 3 mps 756 mmHg 38%
    09:00 +2°C° 0 mm 3 mps 756 mmHg 34%
    10:00 +4°C° 0 mm 3 mps 756 mmHg 31%
    11:00 +5°C° 0 mm 3 mps 756 mmHg 30%
    12:00 +8°C° 0 mm 3 mps 756 mmHg 29%
    13:00 +10°C° 0 mm 2 mps 756 mmHg 29%
    14:00 +10°C° 0 mm 2 mps 756 mmHg 33%
    15:00 +10°C° 0 mm 2 mps 756 mmHg 37%
    16:00 +10°C° 0 mm 2 mps 755 mmHg 41%
    17:00 +8°C° 0 mm 2 mps 756 mmHg 45%
    18:00 +7°C° 0 mm 2 mps 756 mmHg 50%
    19:00 +5°C° 0 mm 2 mps 756 mmHg 54%
    20:00 +4°C° 0 mm 2 mps 756 mmHg 54%
    21:00 +4°C° 0 mm 2 mps 756 mmHg 54%
    22:00 +3°C° 0 mm 2 mps 756 mmHg 53%
    23:00 +3°C° 0 mm 2 mps 756 mmHg 54%

    Tomorrow, 25 February, Monday

    Time Temperature Precipitation Wind Pressure Humidity
    00:00 +4°C° 0 mm 1 mps 756 mmHg 54%
    01:00 +4°C° 0 mm 1 mps 756 mmHg 54%
    02:00 +4°C° 0 mm 1 mps 756 mmHg 55%
    03:00 +2°C° 0 mm 2 mps 756 mmHg 55%
    04:00 +2°C° 0 mm 2 mps 756 mmHg 56%
    05:00 +2°C° 0 mm 2 mps 756 mmHg 57%
    06:00 +2°C° 0 mm 2 mps 756 mmHg 58%
    07:00 +2°C° 0 mm 2 mps 756 mmHg 59%
    08:00 +4°C° 0 mm 2 mps 756 mmHg 56%
    09:00 +5°C° 0 mm 2 mps 756 mmHg 54%
    10:00 +7°C° 0 mm 2 mps 756 mmHg 51%
    11:00 +9°C° 0 mm 2 mps 756 mmHg 51%
    12:00 +10°C° 0 mm 2 mps 756 mmHg 50%
    13:00 +13°C° 0 mm 2 mps 756 mmHg 49%
    14:00 +13°C° 0 mm 2 mps 756 mmHg 52%
    15:00 +14°C° 0 mm 2 mps 755 mmHg 54%
    16:00 +14°C° 0 mm 2 mps 755 mmHg 57%
    17:00 +12°C° 0 mm 2 mps 755 mmHg 63%
    18:00 +9°C° 0 mm 2 mps 755 mmHg 68%
    19:00 +8°C° 0 mm 2 mps 755 mmHg 74%
    20:00 +7°C° 0 mm 2 mps 755 mmHg 75%
    21:00 +7°C° 0 mm 2 mps 755 mmHg 76%
    22:00 +6°C° 0 mm 2 mps 755 mmHg 76%
    23:00 +7°C° 0 mm 1 mps 755 mmHg 77%

    Day after tomorrow, 26 February, Tuesday

    Time Temperature Precipitation Wind Pressure Humidity
    00:00 +7°C° 0 mm 1 mps 755 mmHg 78%
    01:00 +6°C° 0 mm 1 mps 756 mmHg 78%
    02:00 +6°C° 0 mm 1 mps 755 mmHg 79%
    03:00 +6°C° 0 mm 1 mps 755 mmHg 80%
    04:00 +5°C° 0 mm 1 mps 754 mmHg 81%
    05:00 +5°C° 0 mm 1 mps 754 mmHg 81%
    06:00 +5°C° 0 mm 1 mps 754 mmHg 81%
    07:00 +5°C° 0 mm 1 mps 754 mmHg 81%
    08:00 +7°C° 0 mm 1 mps 754 mmHg 75%
    09:00 +8°C° 0 mm 1 mps 754 mmHg 69%
    10:00 +10°C° 0 mm 1 mps 755 mmHg 62%
    11:00 +12°C° 0 mm 1 mps 754 mmHg 57%
    12:00 +13°C° 0 mm 1 mps 754 mmHg 52%
    13:00 +15°C° 0 mm 1 mps 754 mmHg 46%
    14:00 +15°C° 0 mm 1 mps 754 mmHg 47%
    15:00 +15°C° 0 mm 1 mps 753 mmHg 47%
    16:00 +16°C° 0 mm 1 mps 753 mmHg 48%
    17:00 +14°C° 0 mm 1 mps 753 mmHg 54%
    18:00 +12°C° 0 mm 1 mps 753 mmHg 60%
    19:00 +10°C° 0 mm 1 mps 753 mmHg 66%
    20:00 +9°C° 0 mm 1 mps 753 mmHg 67%
    21:00 +9°C° 0 mm 1 mps 753 mmHg 68%
    22:00 +8°C° 0 mm 1 mps 753 mmHg 69%
    23:00 +8°C° 0 mm 1 mps 753 mmHg 70%

    27 February, Wednesday

    Time Temperature Precipitation Wind Pressure Humidity
    00:00 +7°C° 0 mm 1 mps 753 mmHg 70%
    01:00 +7°C° 0 mm 1 mps 752 mmHg 70%
    02:00 +7°C° 0 mm 1 mps 752 mmHg 69%
    03:00 +6°C° 0 mm 1 mps 752 mmHg 69%
    04:00 +6°C° 0 mm 1 mps 751 mmHg 68%
    05:00 +6°C° 0 mm 1 mps 751 mmHg 68%
    06:00 +6°C° 0 mm 1 mps 751 mmHg 67%
    07:00 +5°C° 0 mm 1 mps 751 mmHg 66%
    08:00 +7°C° 0 mm 1 mps 751 mmHg 62%
    09:00 +9°C° 0 mm 1 mps 751 mmHg 57%
    10:00 +11°C° 0 mm 1 mps 751 mmHg 53%
    11:00 +12°C° 0 mm 1 mps 750 mmHg 48%
    12:00 +14°C° 0 mm 1 mps 750 mmHg 44%
    13:00 +15°C° 0 mm 1 mps 749 mmHg 40%
    14:00 +16°C° 0 mm 1 mps 749 mmHg 41%
    15:00 +16°C° 0 mm 1 mps 748 mmHg 42%
    16:00 +16°C° 0 mm 1 mps 748 mmHg 44%
    17:00 +14°C° 0 mm 1 mps 748 mmHg 48%
    18:00 +12°C° 0 mm 1 mps 748 mmHg 53%
    19:00 +11°C° 0 mm 1 mps 747 mmHg 58%
    20:00 +10°C° 0 mm 1 mps 747 mmHg 60%
    21:00 +9°C° 0 mm 1 mps 747 mmHg 62%
    22:00 +9°C° 0 mm 1 mps 747 mmHg 64%
    23:00 +8°C° 0 mm 1 mps 747 mmHg 65%

    28 February, Thursday

    Time Temperature Precipitation Wind Pressure Humidity
    00:00 +8°C° 0 mm 1 mps 747 mmHg 67%
    01:00 +8°C° 0 mm 1 mps 747 mmHg 68%
    02:00 +7°C° 0 mm 1 mps 746 mmHg 70%
    03:00 +7°C° 0 mm 1 mps 746 mmHg 72%
    04:00 +7°C° 0 mm 1 mps 746 mmHg 74%
    05:00 +6°C° 0 mm 1 mps 746 mmHg 75%
    06:00 +6°C° 0 mm 1 mps 746 mmHg 77%
    07:00 +6°C° 0 mm 1 mps 745 mmHg 78%
    08:00 +6°C° 0 mm 2 mps 746 mmHg 72%
    09:00 +8°C° 0 mm 2 mps 746 mmHg 67%
    10:00 +10°C° 0 mm 2 mps 746 mmHg 61%
    11:00 +12°C° 0 mm 2 mps 745 mmHg 57%
    12:00 +12°C° 0 mm 3 mps 745 mmHg 54%
    13:00 +14°C° 0 mm 3 mps 745 mmHg 50%
    14:00 +14°C° 0 mm 3 mps 745 mmHg 51%
    15:00 +14°C° 0 mm 3 mps 744 mmHg 52%
    16:00 +14°C° 0 mm 3 mps 744 mmHg 53%
    17:00 +13°C° 0 mm 2 mps 744 mmHg 59%
    18:00 +12°C° 0 mm 2 mps 744 mmHg 65%
    19:00 +10°C° 0 mm 1 mps 744 mmHg 71%
    20:00 +10°C° 0 mm 1 mps 745 mmHg 73%
    21:00 +9°C° 0 mm 1 mps 745 mmHg 76%
    22:00 +9°C° 0 mm 1 mps 745 mmHg 78%
    23:00 +9°C° 0 mm 1 mps 745 mmHg 80%

    1 March, Friday

    Time Temperature Precipitation Wind Pressure Humidity
    00:00 +8°C° 0 mm 1 mps 745 mmHg 83%
    01:00 +8°C° 0 mm 1 mps 745 mmHg 85%
    02:00 +8°C° 0 mm 1 mps 745 mmHg 87%
    03:00 +7°C° 0 mm 1 mps 745 mmHg 88%
    04:00 +7°C° 0 mm 1 mps 745 mmHg 90%
    05:00 +7°C° 0 mm 1 mps 744 mmHg 90%
    06:00 +5°C° 0 mm 0 mps 744 mmHg 91%
    07:00 +5°C° 0 mm 0 mps 744 mmHg 92%
    08:00 +6°C° 0 mm 0 mps 745 mmHg 88%
    09:00 +8°C° 0 mm 0 mps 745 mmHg 84%
    10:00 +9°C° 0 mm 0 mps 745 mmHg 80%
    11:00 +11°C° 0 mm 1 mps 745 mmHg 75%
    12:00 +12°C° 0 mm 1 mps 745 mmHg 70%
    13:00 +13°C° 0 mm 2 mps 745 mmHg 65%
    14:00 +13°C° 0 mm 2 mps 744 mmHg 64%
    15:00 +13°C° 0 mm 2 mps 744 mmHg 63%
    16:00 +13°C° 0 mm 2 mps 744 mmHg 62%
    17:00 +12°C° 0 mm 2 mps 744 mmHg 67%
    18:00 +10°C° 0 mm 2 mps 744 mmHg 72%
    19:00 +8°C° 0 mm 2 mps 744 mmHg 77%
    20:00 +8°C° 0 mm 2 mps 744 mmHg 76%
    21:00 +7°C° 0 mm 2 mps 745 mmHg 75%
    22:00 +6°C° 0 mm 2 mps 745 mmHg 74%
    23:00 +6°C° 0 mm 2 mps 745 mmHg 75%
    Show more